Tracking 29892 objects as of 21-Nov-2024
HD Live streaming from Space Station
objects crossing your sky now

STARLINK-2377

Track STARLINK-2377 now!
10-day predictions
STARLINK-2377 is classified as:


NORAD ID: 47797
Int'l Code: 2021-018L
Perigee: 554.1 km
Apogee: 554.5 km
Inclination: 53.1 °
Period: 95.6 minutes
Semi major axis: 6925 km
RCS: Unknown
Launch date: March 11, 2021
Source: United States (US)
Launch site: AIR FORCE EASTERN TEST RANGE (AFETR)
Your satellite tracking list
Your tracking list is empty




NASA's NSSDC Master Catalog

Two Line Element Set (TLE):
1 47797U 21018L   24325.11539281  .00005274  00000-0  37259-3 0  9999
2 47797  53.0537 227.0659 0000321 234.6830 125.4129 15.06407592204999
Source of the keplerian elements: AFSPC